Simultaneous Nadir Overpasses (SNOs) Predictions

Prediction of SNOs between AQUA and NPP Satellite Orbit:

Table of predicted SNOs for the next 14.0 days since TLE Epoch: 10/13/2013
Index Date (AQUA) Time (AQUA) Lat,Lon (AQUA) SZA (AQUA ) Date (NPP) Time (NPP) Lat,Lon (NPP) SZA (NPP ) Distance(km) Time Diff (sec)
1 10/15/2013 05:32:56 -74.03, 150.75 73.13 10/15/2013 05:32:41 -74.02, 150.69 73.10 2.11 15
2 10/15/2013 06:21:49 75.68, -37.37 105.16 10/15/2013 06:22:50 75.69, -37.28 105.08 2.58 61
3 10/17/2013 21:00:05 73.39, 97.62 108.42 10/17/2013 20:59:03 73.40, 97.68 108.47 2.06 62
4 10/17/2013 21:49:02 -74.97, -91.08 73.18 10/17/2013 21:49:17 -74.98, -90.99 73.22 2.84 15
5 10/20/2013 13:16:26 73.59,-146.06 109.13 10/20/2013 13:15:56 73.58,-146.13 109.18 2.39 30
6 10/20/2013 14:05:24 -75.11, 25.19 72.41 10/20/2013 14:06:11 -75.10, 25.15 72.45 1.12 47
7 10/23/2013 04:44:37 -69.72, 155.59 66.27 10/23/2013 04:43:23 -69.79, 155.27 66.12 13.92 74
8 10/23/2013 05:32:32 74.53, -28.01 109.07 10/23/2013 05:32:33 74.54, -27.96 109.05 1.51 1
9 10/23/2013 06:18:27 -81.82,-163.43 82.11 10/23/2013 06:19:40 -81.28,-163.11 82.43 60.41 73
10 10/25/2013 20:59:54 -73.31, -82.49 68.85 10/25/2013 20:59:11 -73.31, -82.52 68.79 1.21 43




NCC Satellite Simultaneous Nadir Overpasses (SNOs) Prediction Service
